PDT,Max TemperatureF,Mean TemperatureF,Min TemperatureF,Max Dew PointF,MeanDew PointF,Min DewpointF,Max Humidity, Mean Humidity, Min Humidity, Max Sea Level PressureIn, Mean Sea Level PressureIn, Min Sea Level PressureIn, Max VisibilityMiles, Mean VisibilityMiles, Min VisibilityMiles, Max Wind SpeedMPH, Mean Wind SpeedMPH, Max Gust SpeedMPH,PrecipitationIn, CloudCover, Events, WindDirDegrees
2012-10-1,96,79,62,59,55,52,73,49,23,30.03,29.95,29.86,10,9,3,8,4,,0.00,0,,234
2012-10-2,96,79,62,61,56,52,77,51,23,29.92,29.86,29.78,10,9,5,8,3,,0.00,0,,162
2012-10-3,98,81,64,57,50,43,68,40,15,29.94,29.86,29.81,10,9,3,9,4,,0.00,0,,183
2012-10-4,89,74,59,54,49,45,63,45,22,30.07,30.01,29.94,10,10,7,10,4,,0.00,0,,299
2012-10-5,80,66,53,55,52,48,82,58,39,30.16,30.08,30.02,10,10,6,12,6,,0.00,0,,312
2012-10-6,80,68,55,57,53,50,88,63,42,30.07,30.00,29.91,10,10,4,9,5,,0.00,0,,307
2012-10-7,80,66,53,54,51,46,82,60,39,30.02,29.95,29.89,10,10,7,9,4,,0.00,0,,304
2012-10-8,78,66,55,54,50,46,77,57,39,30.03,29.98,29.94,10,10,9,10,6,,0.00,0,,306
2012-10-9,77,66,55,50,48,45,77,55,34,30.03,29.97,29.91,10,10,8,9,5,,0.00,0,,312
2012-10-10,75,63,51,52,47,43,82,58,36,29.97,29.92,29.87,10,10,8,9,4,,0.00,0,,166
2012-10-11,64,60,55,52,48,45,77,67,56,29.96,29.91,29.87,10,10,9,9,4,,0.00,1,,180
2012-10-12,64,60,53,52,51,48,82,73,64,30.21,30.11,29.97,10,9,5,6,3,,0.00,1,,5
2012-10-13,71,60,48,54,49,45,93,71,46,30.31,30.24,30.18,10,7,2,7,2,,0.00,1,,331
2012-10-14,78,63,48,55,50,43,88,66,39,30.23,30.15,30.06,10,8,2,8,3,,0.00,0,,281
2012-10-15,80,66,51,57,52,46,82,63,39,30.09,30.02,29.94,10,7,2,7,3,,0.00,0,,178
2012-10-16,84,68,53,57,54,48,82,62,37,30.00,29.93,29.83,10,8,4,8,3,,0.00,0,,139
2012-10-17,82,68,55,61,56,50,88,66,45,29.93,29.88,29.82,10,9,5,8,2,,0.00,0,,181
2012-10-18,93,74,55,57,53,48,88,56,21,30.00,29.95,29.90,10,10,7,10,3,,0.00,0,,97
2012-10-19,82,68,55,59,55,50,88,65,42,30.06,29.97,29.89,10,10,6,8,4,,0.00,0,,249
2012-10-20,82,68,55,59,54,50,88,62,39,29.90,29.83,29.75,10,8,3,14,2,,0.00,0,,301
2012-10-21,75,62,50,50,45,39,82,55,29,29.92,29.86,29.80,10,10,10,8,4,,0.00,0,,290
2012-10-22,62,56,48,52,47,41,88,70,55,30.00,29.93,29.84,10,10,9,12,5,,0.05,4,,65
2012-10-23,66,54,42,52,44,37,94,69,43,30.07,30.02,29.97,10,8,0,14,4,,0.00,1,,311
2012-10-24,68,54,39,45,40,36,93,62,35,30.20,30.13,30.03,10,10,8,13,3,,0.00,0,,324
2012-10-25,69,56,42,48,43,36,81,62,38,30.25,30.20,30.14,10,10,9,10,4,,0.00,1,,316
2012-10-26,71,56,42,48,44,37,87,67,40,30.25,30.17,30.10,10,10,7,7,3,,0.00,0,,259
2012-10-27,75,60,44,50,45,39,87,66,38,30.11,30.05,29.96,10,8,2,9,3,,0.00,0,,133
2012-10-28,80,62,44,48,46,39,87,60,32,30.05,30.00,29.95,10,9,7,6,2,,0.00,0,,105
2012-10-29,82,65,48,50,46,39,82,57,32,30.13,30.06,30.02,10,9,6,7,2,,0.00,0,,303
2012-10-30,84,66,48,52,46,41,77,55,26,30.09,30.02,29.95,10,9,5,7,3,,0.00,0,,152
2012-10-31,80,64,48,52,46,39,82,59,26,30.03,29.98,29.93,10,9,5,10,3,,0.00,0,,255